Find Starlink 31410

NORAD ID: 59179 Int'l Des: 2024-045 Owner: SPXS Country: US Constellation: starlink operational
LEOCIRCULAR

現在のビュー

3D地球を読み込み中...

About Starlink 31410

Starlink 31410 (NORAD 59179) is a starlink constellation satellite (v2 mini) launched Mar 11, 2024 by SPXS of US. It operates in LEO, CIRCULAR orbit with a mass of 730.00 kg.

次回通過

Passes for default location (London). Set your location on the main map for personalized predictions.

高度履歴

Loading altitude history...

軌道要素

1 59179U 24045B 26237.01945296 -.00000968 00000-0 -25656-4 0 9995
2 59179 43.0027 222.0514 0001768 272.1104 87.9545 15.27573203138908
Epoch: Aug 25, 2026 • Age: 42 hours

現在のステータス

高度 494.7 km
遠地点 / 近地点 N/A
速度 7.62 km/s
衛星直下点 -41.63°S, 147.17°W
打ち上げ日 Mar 11, 2024
運用期間 2.4 years
タイプ internet

技術仕様

分類 Payload
質量 730.00 kg
乾燥質量 700.00 kg
総質量 730.00 kg
長さ 0.30 m
直径 4.10 m
スパン 29.00 m
形状 Box + pan
製造者 SPXS
バスタイプ Starlink V2M
フェーズステータス In Orbit
所有者/国 SPXS/US

Most Searched